Hourly Data Report for October 09, 2018

CARBERRY CS
MANITOBA
Current Station Operator: ECCC - MSC

49°54'20.900" N
99°21'26.800" W
383.50 m
5010547
71170
WZE

Download Data

Hourly Data (October 2018)
Hourly Data Report for October 9, 2018
TIME
LST
Temp Definition
°C
Dew Point Definition
°C
Rel Hum Definition
%
Precip. Amount Definition
mm

Wind Dir Definition
10's deg

Wind Spd Definition
km/h
Visibility Definition
km
Stn Press Definition
kPa
Hmdx Definition


Wind Chill Definition


Weather Definition


00:00 2.1 0.0 86 0.0 1 15   97.81     LegendNANA
01:00 1.8 0.5 91 0.0 1 16   97.85     LegendNANA
02:00 1.6 0.6 93 0.0 36 11   97.94     LegendNANA
03:00 0.9 0.6 98 0.0 35 14   97.87     LegendNANA
04:00 0.8 0.3 96 0.0 1 15   97.94     LegendNANA
05:00 0.7 0.1 95 0.0 1 14   97.98     LegendNANA
06:00 0.5 -0.4 94 0.0 1 15   98.02     LegendNANA
07:00 0.4 -0.5 93 0.0 1 14   98.03     LegendNANA
08:00 0.5 -0.6 92 0.0 1 16   98.09     LegendNANA
09:00 0.5 -1.0 90 0.0 1 17   98.12     LegendNANA
10:00 1.2 -1.2 84 0.0 2 18   98.14     LegendNANA
11:00 1.8 -1.5 79 0.0 1 17   98.14     LegendNANA
12:00 2.4 -1.5 75 0.0 1 15   98.16     LegendNANA
13:00 3.4 -1.9 68 0.0 1 19   98.12     LegendNANA
14:00 3.5 -1.4 70 0.0 1 16   98.11     LegendNANA
15:00 4.2 -1.6 66 0.0 1 16   98.05     LegendNANA
16:00 4.1 -2.7 61 0.0 2 17   98.06     LegendNANA
17:00 3.5 -2.8 64 0.0 2 16   98.11     LegendNANA
18:00 2.5 -3.6 64 0.0 2 15   98.14     LegendNANA
19:00 1.0 -3.9 70 0.0 36 9   98.12     LegendNANA
20:00 -0.5 -4.0 77 0.0 36 9   98.12   -4 LegendNANA
21:00 -0.4 -5.3 70 0.0 36 13   98.06   -5 LegendNANA
22:00 0.1 -6.2 62 0.0 1 16   98.08     LegendNANA
23:00 -0.5 -5.3 70 0.0 1 13   98.04   -5 LegendNANA

Notes on Data Quality.

Legend

  • E = Estimated
  • M = Missing
  • NA = Not Available*
  • [empty] = Indicates an unobserved value
Date modified: